Wind_Speed
36 35 35 34 34 35 34 34 33 31 31 30 29 28 26 25 25 24 25 25 24 24 23 21 20 18 18 17 16 16 15 15 16 17 18 18 18 19 19 20 19 18 18 17 16 15 14 14 13 13 13 12 10 10 9 8 8 8 8 7 7 7 7 7 7 6 6 6 6 7 7 7 7 8 9 10 11 13 13 12 14 15 16 16 17
36 35 35 35 34 34 34 34 34 33 32 31 30 29 28 27 26 26 26 25 25 24 23 22 20 18 17 16 15 14 14 14 15 16 17 17 17 18 19 21 20 20 20 19 18 17 16 15 14 15 15 14 13 13 12 11 11 10 10 10 9 9 9 9 10 9 9 9 10 11 10 10 10 10 11 12 13 15 15 15 16 17 17 18 18
33 34 35 35 34 34 34 34 34 34 33 32 30 29 29 28 28 28 26 26 26 25 24 23 21 19 18 17 16 15 14 14 14 14 14 15 16 17 18 20 21 21 21 21 20 20 19 17 16 16 17 16 15 15 15 14 14 14 13 13 12 12 12 13 13 13 12 13 14 13 14 14 14 14 15 16 16 17 18 18 19 19 19 20 20
32 33 34 35 34 34 34 35 35 35 34 33 31 30 30 29 29 28 27 27 27 26 25 24 23 21 20 19 18 16 15 14 14 13 12 12 14 15 17 18 19 20 20 21 21 22 21 19 18 18 19 18 17 17 17 17 16 16 16 16 16 15 16 17 17 17 17 17 16 16 17 18 18 18 19 20 20 21 21 21 21 21 21 22 22
31 31 32 34 35 35 35 35 35 35 34 33 32 31 31 30 29 29 28 28 28 27 27 26 24 23 21 20 18 17 16 15 14 13 12 12 13 13 14 15 16 17 17 19 20 21 22 21 20 21 22 21 19 18 18 18 18 19 19 19 19 19 19 20 21 21 23 22 20 19 20 21 21 21 22 24 25 25 25 25 25 25 24 24 25
32 31 31 32 34 35 35 35 35 35 35 34 33 33 32 30 30 29 29 29 28 28 28 27 26 24 22 20 19 18 17 16 16 15 15 14 14 13 13 13 13 14 14 15 16 17 18 19 20 22 23 23 22 21 21 20 21 21 21 21 21 22 22 23 24 25 26 26 25 24 24 24 25 24 24 26 28 29 28 28 28 28 28 28 29
34 32 31 31 32 33 35 35 35 35 35 34 34 33 33 31 30 29 29 29 29 29 29 29 28 26 24 22 21 20 19 19 18 17 17 16 15 14 14 13 13 13 13 13 14 14 14 15 16 19 20 21 21 22 23 24 24 24 24 24 25 26 26 25 26 28 28 29 29 29 28 29 29 29 28 29 31 31 31 32 32 32 32 33 33
34 33 31 30 30 30 32 33 34 34 34 34 34 34 33 32 31 30 29 30 29 29 30 30 29 28 26 25 24 23 22 21 20 19 18 16 15 15 14 14 14 14 14 14 15 15 14 15 15 16 17 18 18 20 22 24 26 26 26 27 28 29 29 28 29 30 31 32 32 31 32 32 33 32 32 33 34 34 34 36 37 36 35 37 38
32 33 32 30 29 28 28 30 32 33 33 33 34 33 33 32 32 31 30 30 30 30 30 30 30 30 29 28 27 26 25 24 22 21 19 17 16 16 15 15 15 15 16 16 16 16 16 16 17 17 18 18 19 20 21 23 25 26 26 28 30 31 31 31 32 32 33 34 34 34 35 36 36 35 35 36 36 36 36 38 39 38 38 40 40
29 30 30 30 28 26 26 28 29 31 32 32 32 32 32 32 32 31 31 30 30 30 30 30 30 30 30 30 29 29 28 26 24 22 21 20 19 19 18 18 18 18 19 19 19 18 18 19 19 20 21 21 22 22 22 23 25 25 25 27 29 31 31 32 32 33 34 35 35 35 36 37 36 36 36 35 35 35 35 36 37 38 38 40 41
27 26 25 25 26 26 26 26 27 29 30 30 30 30 30 31 31 31 30 30 30 30 30 30 30 29 29 29 30 30 29 27 25 24 23 22 22 22 21 20 21 21 21 21 21 21 21 21 22 22 23 24 24 24 25 25 25 25 25 26 28 29 30 31 31 31 32 34 34 34 35 35 34 34 34 34 34 34 35 36 37 38 39 41 41
26 25 23 22 23 24 25 26 26 27 27 27 27 28 28 29 30 30 30 30 30 30 30 29 29 28 28 28 29 29 28 27 26 25 25 24 24 23 23 22 23 23 22 22 22 22 23 23 24 25 26 26 26 26 26 25 25 25 25 26 27 28 29 29 29 30 31 32 33 33 33 33 32 32 33 34 34 35 36 37 38 39 39 41 42
26 25 23 23 23 22 22 23 24 24 25 25 25 26 27 28 28 28 28 29 29 30 30 29 29 28 28 27 28 28 27 26 25 25 25 25 25 25 25 24 24 24 23 23 23 23 24 25 26 27 27 27 27 26 25 24 24 25 24 25 25 26 27 28 28 29 30 31 32 31 31 32 33 32 33 35 37 38 39 39 40 41 41 42 44
25 25 25 26 25 24 24 23 23 23 23 23 24 25 26 26 26 27 27 27 28 29 29 29 29 29 28 27 26 26 26 25 25 25 24 25 25 26 26 26 26 25 25 24 24 25 25 26 27 25 24 23 22 21 21 20 21 22 22 22 21 22 24 27 28 29 29 30 31 31 30 32 34 35 36 39 41 42 42 43 44 45 44 42 43
26 26 26 27 27 28 28 27 26 25 25 25 25 25 26 25 25 25 25 26 26 26 26 27 28 28 28 27 27 26 25 25 25 25 24 25 26 26 27 27 27 27 26 25 25 25 24 23 21 17 16 16 15 16 17 17 19 20 21 20 21 22 25 27 28 29 30 31 32 32 31 33 35 37 38 40 44 45 44 44 45 47 46 43 43
26 26 27 27 27 28 29 29 28 28 27 27 26 26 25 25 24 24 24 25 24 24 25 25 25 25 26 26 26 25 23 23 24 25 25 26 27 28 28 27 28 27 27 26 24 22 19 18 15 13 13 13 13 15 17 19 21 23 23 24 25 27 28 29 30 31 31 33 34 34 33 34 36 38 38 40 43 45 43 42 42 44 44 43 43
21 23 24 25 25 26 27 28 28 28 28 28 27 27 26 25 25 25 24 24 24 23 23 23 23 24 24 25 24 22 22 22 24 24 25 27 28 28 28 28 28 28 27 25 22 19 17 15 14 14 14 14 15 18 20 23 25 27 28 29 29 31 33 33 33 33 32 33 35 36 35 35 36 37 38 39 43 44 43 41 41 41 42 43 44
19 21 21 21 22 23 24 25 25 26 28 28 28 28 28 27 27 26 26 25 24 23 23 23 23 24 24 24 23 22 22 23 24 25 26 27 28 27 27 28 30 29 27 24 21 19 17 16 16 16 17 17 19 21 24 27 29 30 32 33 33 35 37 35 31 29 28 28 31 34 33 34 35 36 38 40 41 43 45 44 43 42 43 44 45
18 18 17 17 18 18 19 20 21 23 24 25 26 27 27 28 28 29 29 28 27 26 25 24 24 24 24 24 24 24 23 23 25 26 26 27 27 27 28 30 31 29 27 24 21 19 18 17 18 19 20 21 23 25 27 30 32 33 34 35 35 36 36 33 29 27 26 26 27 29 30 31 33 34 35 36 37 39 42 43 43 43 44 44 44
17 16 15 16 16 17 18 18 19 20 20 20 21 22 23 25 26 28 29 29 29 29 28 28 27 26 25 25 25 25 25 25 26 26 26 27 27 27 30 31 30 29 27 25 22 21 20 21 21 22 24 25 27 29 30 32 33 35 36 37 37 35 34 34 30 28 27 25 24 24 26 28 30 31 31 31 32 35 39 41 43 44 46 47 47
19 18 17 17 17 18 19 19 20 20 19 18 18 19 20 21 23 25 26 27 28 30 30 30 30 29 28 27 27 26 26 26 27 27 27 28 28 28 31 32 31 30 29 27 25 24 24 24 25 26 27 29 30 32 33 34 35 36 37 37 35 34 35 33 28 24 24 24 22 22 23 25 27 29 31 31 31 35 39 41 43 45 47 49 50
20 19 18 19 19 19 20 21 22 21 20 20 21 20 20 21 22 23 24 26 27 29 30 31 32 32 32 31 30 29 28 27 28 28 29 29 29 29 31 32 32 32 31 29 28 27 27 27 28 29 30 31 32 33 35 36 36 37 37 36 34 34 35 29 21 18 21 24 24 22 22 25 27 28 31 32 33 37 41 44 45 47 48 50 51
19 19 19 19 19 20 21 21 22 23 22 22 23 22 22 22 23 24 25 26 27 28 29 30 32 33 34 34 33 32 30 29 29 30 31 31 30 31 32 33 34 34 34 32 31 30 30 31 31 32 33 33 34 35 36 37 37 36 37 36 34 33 32 25 19 19 22 25 25 24 23 25 28 29 32 34 37 40 44 46 47 49 50 52 53
17 17 16 15 15 16 17 17 18 19 20 21 23 23 24 25 25 26 27 28 28 29 29 30 31 32 33 34 34 35 34 33 32 32 32 33 32 32 33 34 35 36 36 35 34 33 33 34 34 35 35 36 36 37 37 37 37 36 36 36 33 31 31 28 24 23 23 22 21 22 23 25 28 31 34 38 41 44 46 48 50 51 52 54 54
16 15 14 13 12 12 12 12 12 12 14 16 19 20 22 24 26 27 28 29 29 30 30 30 31 32 32 32 33 33 35 35 35 35 35 34 35 35 35 36 37 37 37 36 36 36 36 36 36 37 37 38 38 38 38 37 36 36 36 35 33 32 33 32 28 24 22 20 20 21 24 27 31 34 37 40 43 47 49 50 51 52 53 54 54
18 17 15 14 13 12 12 12 11 12 13 14 15 16 18 20 22 24 26 27 28 29 29 30 31 32 31 31 30 30 32 33 36 37 38 38 37 37 37 38 38 38 38 38 38 38 38 38 39 39 39 39 39 39 38 37 37 36 35 35 35 34 33 32 28 25 23 24 24 25 28 31 34 37 40 43 45 49 51 51 50 51 52 54 54
19 18 18 17 16 15 15 15 15 15 15 15 16 16 16 17 18 19 19 20 21 23 25 27 29 30 31 31 31 30 30 31 32 35 38 40 41 41 40 40 40 39 39 39 40 41 41 41 41 40 40 40 39 39 38 37 36 35 34 34 33 32 31 30 29 27 27 28 29 31 33 36 38 41 43 45 47 49 50 51 51 51 51 53 53
20 19 19 19 19 19 19 19 19 19 18 18 18 18 18 18 18 17 16 16 16 17 18 20 23 26 29 31 31 31 31 31 31 32 34 37 39 42 43 43 43 43 42 42 43 43 43 42 41 41 40 40 39 38 37 35 34 33 32 30 29 28 29 30 30 31 31 32 34 36 38 39 41 44 46 47 48 49 50 51 52 52 51 52 51
20 20 20 21 22 23 24 24 23 22 21 21 21 20 20 20 20 19 18 18 17 17 18 19 20 23 25 27 28 29 29 30 31 32 33 33 35 37 39 41 42 43 43 44 44 43 42 41 41 40 39 38 37 36 35 34 32 30 28 26 26 27 29 30 31 32 34 36 38 40 41 43 44 46 48 49 50 50 51 52 52 52 50 49 47
23 23 24 25 27 28 28 27 26 24 23 24 24 23 23 22 22 21 20 20 19 20 21 21 22 24 24 25 25 25 25 27 29 31 32 32 33 34 35 36 38 39 40 41 41 40 40 40 38 37 36 36 35 34 33 31 28 25 24 24 26 27 29 29 31 33 35 38 40 42 44 45 47 49 50 51 51 50 51 51 50 48 46 44 42
26 27 28 29 30 30 29 29 28 26 25 25 25 26 26 25 24 23 22 21 21 21 22 23 25 26 27 26 26 25 25 26 28 29 30 32 33 34 34 35 35 36 37 37 37 38 37 36 35 34 34 33 33 32 30 27 24 23 24 25 26 27 28 29 31 33 36 38 40 43 45 47 49 50 51 52 52 51 49 47 44 42 40 40 40
28 28 29 29 29 29 29 30 29 28 27 27 27 27 28 27 26 25 24 24 24 25 25 25 26 28 28 29 28 28 27 28 29 30 31 32 32 33 34 35 35 35 35 35 35 35 34 34 33 32 31 31 31 29 26 23 22 23 24 25 25 26 27 29 32 33 36 38 40 43 46 48 50 51 52 52 51 48 44 41 38 38 38 37 36
29 29 29 29 28 28 29 29 30 29 29 28 28 29 29 29 29 28 27 27 28 28 29 28 28 29 29 30 29 29 29 30 30 31 32 33 33 33 33 33 34 34 34 34 34 33 33 32 31 30 29 29 28 24 22 21 21 23 23 24 25 26 28 30 32 34 36 38 41 44 46 48 49 49 49 48 46 43 40 37 36 36 35 33 32
29 30 29 29 28 28 28 29 29 30 30 29 28 28 29 30 30 30 30 30 30 31 31 31 31 31 31 31 31 31 31 30 30 31 32 33 34 33 32 31 32 32 32 32 31 31 30 29 28 28 27 26 23 21 20 21 21 22 23 23 25 27 28 30 32 34 36 39 41 43 45 47 47 46 44 41 39 37 36 34 33 33 32 31 30
25 26 26 26 26 26 26 27 28 28 29 29 28 28 28 29 30 30 31 31 32 32 32 31 31 31 32 32 32 31 31 30 30 31 32 33 33 33 31 29 29 29 29 28 27 27 26 26 26 25 23 22 20 20 21 21 21 22 23 24 26 27 29 30 32 34 36 39 41 43 44 44 44 42 39 36 33 31 30 30 30 31 31 31 31
22 22 23 23 23 24 24 25 26 27 28 29 29 28 27 28 28 29 30 31 32 32 32 31 30 31 31 31 31 30 30 30 30 31 32 33 32 30 29 28 27 26 25 25 24 24 24 23 22 21 20 20 20 21 21 21 21 22 23 25 26 28 29 30 32 34 37 39 40 42 42 41 39 36 33 31 30 28 27 27 28 29 30 31 31
22 21 20 20 21 22 23 24 25 26 27 29 29 29 28 28 29 29 30 31 32 32 32 31 30 30 29 29 29 28 28 28 29 30 31 31 31 29 28 27 25 24 23 24 24 24 23 22 21 21 21 21 21 21 21 21 22 23 24 26 27 28 29 31 33 35 37 39 40 40 39 37 34 31 28 27 27 27 26 27 27 28 29 29 29
23 21 19 18 17 18 19 21 23 24 26 28 29 30 30 29 29 30 31 31 32 32 33 32 31 30 29 29 28 27 27 27 27 28 29 29 28 27 25 23 22 23 25 26 26 25 23 23 22 21 21 21 21 21 21 22 23 24 25 26 27 28 30 32 34 36 38 39 39 38 36 32 29 27 26 25 25 25 26 26 26 26 26 27 27
25 23 20 18 16 15 16 18 20 22 23 25 27 29 30 30 30 30 31 31 32 32 33 32 30 30 29 29 28 28 27 27 27 27 27 27 27 26 25 24 26 28 29 27 26 24 23 23 22 21 21 21 21 21 22 23 24 25 26 26 28 29 31 33 35 37 38 38 37 35 33 30 27 26 25 25 25 25 25 25 25 25 25 25 25
28 26 23 20 18 16 16 17 19 20 22 24 26 27 28 29 29 29 29 30 31 31 31 30 29 29 29 29 28 27 25 25 26 27 27 27 26 25 24 25 27 28 27 25 24 23 22 22 21 20 21 21 21 22 23 23 24 25 26 27 28 30 32 34 35 36 36 36 35 33 31 29 27 25 24 24 25 25 25 24 24 24 24 25 25
30 29 27 24 21 20 19 19 20 22 23 24 25 26 27 28 28 28 28 29 29 30 30 30 29 29 29 30 30 28 25 25 26 26 25 25 24 23 23 23 24 23 23 22 21 21 20 20 20 20 21 21 22 22 23 24 25 26 26 27 29 30 33 34 35 35 34 33 32 31 29 27 25 24 24 24 24 24 23 23 22 22 22 23 23
30 30 29 27 25 24 24 24 25 26 26 26 26 27 27 28 28 27 26 26 28 29 29 29 29 29 29 30 30 29 28 29 28 26 25 23 21 21 22 22 22 21 20 20 20 20 20 20 20 21 21 21 22 23 24 25 25 26 26 28 29 31 33 34 34 33 32 31 29 28 27 25 23 23 23 23 22 22 21 21 20 20 20 20 21
30 30 30 29 28 28 29 30 31 31 31 29 28 28 28 29 29 28 25 25 26 28 28 29 30 32 32 32 32 33 35 35 32 27 23 20 18 18 19 19 19 19 19 19 20 20 20 21 21 21 21 22 23 24 24 25 25 26 27 28 30 32 33 33 32 32 30 29 27 26 24 23 21 21 21 21 21 20 20 20 19 19 20 20 20
30 30 30 29 29 30 32 34 36 37 36 33 31 29 28 29 29 28 26 27 29 31 32 33 34 35 37 38 39 38 36 31 24 19 16 15 14 15 17 18 19 20 20 20 20 21 21 21 21 21 22 23 23 24 24 25 26 27 28 30 31 32 32 31 31 30 29 27 25 23 22 20 19 19 19 19 20 20 20 19 19 20 20 21 21
31 30 29 29 31 33 35 37 39 39 37 34 31 29 27 28 29 29 29 30 32 34 36 38 39 39 38 37 34 29 22 16 12 12 13 14 14 15 17 19 20 20 20 21 21 21 21 21 21 22 22 23 23 24 25 26 27 28 30 31 31 31 30 30 29 28 27 25 24 22 20 19 18 17 17 17 18 19 19 19 19 20 20 21 21
33 31 31 33 35 37 38 38 38 37 35 32 29 27 26 27 28 29 30 33 35 37 39 40 39 38 35 31 26 21 17 15 15 15 15 15 16 17 19 20 21 21 21 21 21 21 21 21 22 22 22 23 24 25 26 27 29 30 31 31 30 30 29 29 28 27 26 24 23 21 19 18 18 17 17 17 17 18 18 19 19 19 20 21 21
35 34 36 38 39 38 37 36 34 32 30 27 24 22 22 23 25 27 29 33 36 37 38 37 35 33 31 28 25 22 21 19 19 19 18 18 19 20 21 21 22 22 22 22 21 21 22 22 22 23 23 24 25 26 27 29 30 31 31 30 29 28 28 28 27 26 25 24 23 22 20 19 19 18 18 17 18 18 19 19 19 19 20 20 21
37 38 39 39 38 36 33 30 27 25 22 20 18 17 18 21 24 25 27 30 33 35 34 31 29 28 28 26 24 21 20 19 19 19 19 19 20 21 21 21 22 22 22 22 22 22 22 22 23 23 24 25 26 28 29 30 31 31 30 29 28 27 27 26 26 25 24 24 23 23 22 22 21 20 19 18 19 19 19 19 19 19 19 19 20
38 38 37 36 35 32 27 23 22 22 21 17 14 16 19 23 26 28 30 33 36 35 32 29 26 24 23 22 21 19 19 19 19 19 19 20 20 21 21 21 21 21 21 21 22 22 23 24 24 25 26 27 29 30 31 31 31 30 29 28 27 26 26 25 25 25 25 25 25 25 25 24 23 21 21 21 21 21 20 20 19 18 18 18 18
36 34 30 27 25 22 17 16 18 19 18 15 15 18 23 26 27 28 30 30 29 26 23 21 19 18 17 18 18 19 19 19 19 18 19 20 20 21 21 20 20 20 21 21 22 23 24 25 27 28 29 30 31 31 31 31 30 29 28 27 26 25 25 26 26 26 26 26 27 27 27 26 25 23 22 22 22 21 20 20 20 19 18 18 17
23 18 13 10 9 8 8 11 13 12 13 15 18 20 18 15 15 16 16 14 13 12 12 12 12 13 14 15 17 18 19 19 19 19 20 21 21 22 22 21 21 21 22 22 24 25 26 28 29 31 32 32 32 32 31 30 28 27 27 27 27 27 27 28 28 29 29 29 29 27 27 27 26 25 24 23 22 21 20 20 20 20 20 20 19
Wind_Direction
217 216 215 215 214 213 213 212 212 212 212 213 213 213 214 214 213 212 213 214 216 221 226 229 231 233 234 238 241 241 239 239 239 238 236 231 226 224 228 232 231 228 229 228 227 227 224 221 219 222 224 222 222 224 222 221 216 210 209 208 208 214 216 216 216 221 230 235 244 256 264 271 277 285 290 293 298 299 303 309 312 311 314 317 320
220 217 216 216 216 215 214 214 214 214 214 215 215 215 215 215 215 215 214 215 217 220 224 228 231 231 231 232 233 234 232 233 234 235 234 231 226 222 224 228 231 231 232 233 232 231 229 227 227 229 231 228 227 230 231 232 231 229 229 229 229 235 240 239 236 235 236 238 242 248 254 259 262 269 278 282 288 293 296 301 303 304 308 311 313
220 219 217 218 217 217 216 215 215 215 215 215 216 216 216 216 217 217 216 216 217 220 223 226 229 229 227 225 224 225 223 224 227 229 228 227 226 224 224 226 229 230 232 235 236 235 233 230 230 233 237 235 233 234 235 236 237 237 238 240 241 246 253 255 252 247 243 242 247 255 261 263 263 268 275 277 280 284 287 291 294 297 301 304 306
219 219 218 218 218 218 218 217 216 216 216 216 216 216 217 217 218 218 218 217 218 220 222 225 227 227 225 223 221 220 218 218 221 222 220 220 220 222 225 227 229 231 233 235 238 239 238 235 233 235 239 240 239 239 239 240 241 241 242 245 247 251 256 259 259 257 252 245 243 252 261 265 268 272 276 278 279 281 281 283 286 290 294 297 298
218 220 219 219 219 219 219 218 218 217 217 217 217 217 217 218 218 219 219 219 219 220 222 225 227 227 226 225 224 221 219 217 217 216 213 213 212 212 217 222 226 229 232 234 237 241 242 241 240 240 241 242 242 243 245 246 247 247 247 249 252 255 257 259 261 262 261 257 251 251 257 262 266 271 275 278 279 280 281 283 285 288 289 289 290
217 219 220 221 220 220 220 220 219 218 218 218 218 218 218 218 219 220 220 221 221 220 223 225 228 229 228 227 227 225 223 220 217 214 212 212 211 209 211 214 217 220 224 229 235 240 244 245 246 246 247 246 246 246 247 248 250 251 252 254 257 258 258 259 262 263 265 266 264 262 264 267 269 271 275 278 280 282 284 286 287 287 287 285 283
215 217 219 222 222 222 222 222 222 221 220 220 220 220 220 220 220 220 221 223 223 223 223 225 227 229 229 229 229 228 226 224 220 218 216 216 214 213 216 217 219 221 223 226 232 238 242 245 247 249 252 253 252 251 250 250 250 251 252 255 258 259 260 261 263 266 267 268 269 270 272 273 274 275 277 278 280 282 285 285 284 283 284 283 282
215 216 218 222 223 223 224 224 225 225 224 223 223 223 222 222 222 221 222 224 225 225 226 226 227 228 228 229 229 229 228 226 224 223 222 222 220 220 222 225 228 231 232 234 237 240 243 245 247 251 255 257 258 256 255 254 252 251 252 255 257 259 260 261 263 265 268 269 271 272 274 274 275 277 278 278 279 281 283 283 281 281 281 280 279
215 216 218 220 223 224 225 225 226 227 227 227 226 225 225 225 225 224 224 225 226 227 228 228 228 228 228 228 228 229 229 227 225 226 225 226 227 227 229 231 235 238 240 242 243 245 247 249 251 253 255 256 257 256 256 257 256 256 256 258 259 261 262 263 264 266 268 270 272 273 275 276 277 278 279 280 281 282 282 282 282 283 281 279 278
213 214 216 217 218 221 223 224 226 227 228 229 229 229 228 228 228 227 227 228 228 228 229 230 231 230 229 229 228 229 230 228 227 226 227 229 230 233 235 237 240 242 244 247 248 250 252 254 256 257 257 257 257 257 258 258 259 260 260 261 263 264 266 267 268 270 271 273 275 277 278 278 280 282 282 283 283 284 284 283 282 282 281 280 282
212 212 213 212 213 217 219 221 223 225 227 229 230 231 231 231 231 231 230 230 230 230 231 232 234 234 232 231 230 231 231 230 228 227 227 229 233 237 240 242 244 246 247 250 252 253 255 256 258 258 258 259 260 260 260 260 261 262 263 264 265 266 268 270 272 274 276 277 279 280 280 282 284 285 285 286 286 285 284 282 282 283 283 284 287
212 212 212 211 211 213 215 218 220 222 225 227 229 230 231 233 233 233 233 233 233 233 234 235 236 236 235 235 234 234 233 231 229 228 228 230 234 240 243 246 248 250 252 253 253 254 255 256 257 257 258 260 262 263 263 263 264 264 263 263 264 266 269 271 274 276 277 279 281 281 283 286 288 289 289 289 288 286 285 285 285 286 286 288 292
211 211 212 212 213 213 213 215 218 220 222 224 226 228 230 232 233 234 235 235 235 236 236 237 237 237 237 237 237 237 236 233 231 230 229 230 235 241 246 250 252 253 254 255 254 254 254 255 256 257 259 261 263 263 264 263 263 263 264 264 265 267 270 272 274 276 277 279 282 285 288 290 294 296 294 291 289 288 287 289 289 287 288 293 297
211 211 212 214 216 216 216 217 217 218 220 222 225 227 229 231 233 234 235 236 236 237 237 238 238 238 239 239 239 239 238 236 234 232 231 232 236 243 248 252 254 254 254 254 254 254 255 257 258 258 258 258 259 259 261 261 261 261 262 264 266 268 269 270 272 274 278 282 287 293 296 296 298 301 298 294 292 291 290 291 290 289 290 294 297
211 212 214 216 218 219 221 222 222 222 223 224 226 228 229 230 232 233 234 235 237 238 238 239 239 239 239 240 240 239 237 236 235 234 233 234 239 245 249 252 254 255 254 254 255 255 256 255 255 251 248 248 250 252 256 257 259 261 262 264 268 267 266 268 271 274 280 285 289 295 297 295 296 297 296 294 292 291 289 288 288 288 289 290 290
211 213 215 216 218 220 222 224 225 226 227 228 230 231 231 232 233 235 236 237 237 237 238 239 239 239 239 239 239 238 236 234 233 233 234 236 241 246 250 252 254 254 254 254 254 251 246 244 242 240 240 244 249 254 259 261 263 265 266 268 270 268 265 266 269 274 282 287 289 291 291 289 288 288 289 289 288 286 284 282 283 284 285 286 286
205 209 213 214 217 220 223 225 227 228 230 232 234 235 236 237 237 238 239 239 239 239 239 240 241 240 239 240 240 238 235 233 232 232 233 237 241 245 248 250 251 252 252 251 246 239 235 237 243 247 252 257 260 263 266 268 270 271 271 271 273 272 268 266 267 273 282 289 289 288 287 286 285 285 285 284 284 285 285 285 286 284 283 285 287
191 198 203 207 210 215 219 223 226 229 232 234 236 237 238 239 239 240 241 242 242 242 242 242 241 241 240 239 239 238 235 234 234 234 234 237 240 242 244 246 247 248 248 244 239 237 239 246 253 259 264 267 268 269 271 272 273 274 274 274 276 274 273 273 277 282 288 292 290 287 287 288 289 289 287 284 284 286 288 290 290 289 288 288 288
188 192 194 197 202 207 212 217 222 227 231 233 235 236 237 237 238 240 240 241 242 242 243 244 243 242 240 238 237 236 235 234 234 235 235 237 237 239 242 244 245 245 244 241 240 243 248 253 258 264 268 270 271 272 272 274 275 277 277 277 278 278 279 282 288 294 299 300 296 292 291 289 289 289 288 288 288 288 289 290 290 290 290 290 290
189 190 192 198 201 203 205 209 214 218 222 224 227 231 233 235 237 239 240 240 241 241 242 244 244 244 243 240 238 236 234 233 234 234 235 235 236 238 241 243 243 244 243 242 243 246 250 254 259 263 268 271 273 275 276 278 280 281 282 282 282 282 283 284 290 298 303 303 297 291 290 290 291 293 293 293 293 291 291 291 291 291 291 291 292
197 198 201 207 209 207 204 204 207 208 208 209 213 218 224 228 232 237 239 239 239 240 241 242 243 244 244 244 242 239 235 234 234 234 234 234 235 237 240 242 243 244 245 245 246 248 252 256 260 264 269 273 276 279 281 283 284 284 284 284 285 284 283 286 294 301 300 295 289 287 289 291 294 295 295 296 297 296 294 294 294 294 295 295 296
212 214 216 217 216 213 207 203 203 204 202 203 207 210 214 219 225 231 235 237 238 238 238 239 240 241 243 244 244 242 239 236 235 234 235 235 236 237 240 242 243 245 247 248 249 252 256 259 263 266 270 274 277 281 283 284 284 284 284 283 282 281 281 287 297 298 292 289 287 288 289 290 293 296 299 303 306 304 302 301 301 300 300 300 300
228 231 230 224 217 214 210 206 205 206 205 206 208 209 211 216 222 227 231 235 238 238 237 238 240 240 241 241 242 243 242 239 237 236 236 237 237 238 240 242 244 246 249 251 253 256 259 262 265 268 271 275 279 282 283 283 283 284 283 281 280 282 285 292 298 293 289 290 291 292 295 296 299 305 308 310 312 310 306 304 303 303 302 302 302
228 228 225 218 208 205 207 207 208 210 211 212 213 213 214 217 221 225 229 233 236 238 238 239 240 241 241 240 240 241 242 241 240 238 238 238 239 239 240 242 244 247 249 252 255 257 260 263 266 270 273 277 280 281 282 283 284 284 282 283 286 289 290 294 296 292 289 291 294 298 303 304 307 311 312 313 313 310 306 305 304 304 303 303 302
214 213 213 213 210 209 211 213 215 217 217 218 220 220 222 225 226 228 231 234 238 240 240 241 243 243 243 242 240 240 241 241 240 240 239 239 239 240 241 242 244 247 250 253 256 259 262 265 268 272 275 278 280 281 283 285 285 284 284 287 290 290 288 292 297 298 298 301 303 306 309 310 311 313 313 313 312 309 306 305 306 305 304 303 303
213 215 220 226 231 236 241 242 241 238 233 228 225 224 226 231 233 235 237 240 244 245 245 246 248 250 250 249 246 243 242 242 241 241 240 240 240 241 242 243 245 247 250 253 256 259 263 266 269 273 276 278 280 282 284 285 285 285 287 290 292 292 292 296 301 304 306 308 309 311 313 314 314 313 312 312 312 309 307 307 307 306 305 305 305
221 225 230 237 243 250 258 260 257 253 249 244 238 233 230 230 232 236 241 244 248 250 251 252 254 255 255 253 251 248 246 245 244 243 242 242 241 242 243 244 246 248 250 253 256 260 263 266 269 272 275 277 279 281 283 283 283 284 287 289 291 294 296 299 303 306 309 311 313 315 316 316 315 313 312 312 311 309 308 309 309 309 309 309 309
230 235 240 246 253 261 267 269 265 258 253 251 248 244 241 238 235 236 241 246 250 253 255 257 258 258 256 254 253 253 252 251 250 247 246 245 244 244 245 246 248 249 252 254 257 260 264 266 269 271 273 275 278 279 280 279 279 282 286 288 290 293 296 299 303 307 310 313 315 316 316 315 314 312 312 311 311 311 312 312 312 313 313 313 313
237 243 248 254 258 263 267 270 268 262 256 253 252 250 249 249 246 245 245 246 249 253 255 257 258 258 257 256 255 257 258 258 256 254 253 252 251 251 250 250 251 253 254 257 259 262 264 266 268 270 273 275 277 277 276 277 280 283 286 288 289 292 296 299 304 308 312 315 316 316 315 314 314 314 314 314 315 315 315 315 315 315 315 314 315
240 246 251 254 257 261 263 264 264 262 258 255 253 252 252 253 253 252 250 249 248 250 253 255 256 256 257 257 257 259 261 263 263 263 262 261 259 258 256 255 255 256 257 259 261 263 265 267 269 270 272 273 273 273 274 278 281 282 284 285 288 292 295 299 304 309 313 314 314 314 315 315 316 316 316 316 317 317 317 317 316 316 315 316 316
245 249 253 255 257 258 258 258 258 260 259 257 254 253 253 254 255 257 257 257 254 252 251 252 254 256 257 258 259 261 263 267 269 269 268 266 264 262 260 259 258 258 259 261 262 264 265 267 268 269 269 269 269 271 274 277 278 279 281 285 288 290 295 300 305 309 311 312 313 314 315 316 316 316 317 317 318 319 318 318 317 317 317 318 318
250 254 257 259 258 256 255 254 255 256 258 258 255 253 252 253 255 256 258 259 259 257 255 253 253 255 257 258 260 262 264 267 270 271 271 270 268 265 263 261 260 261 261 262 264 265 266 267 268 268 269 269 270 273 275 275 275 278 281 284 287 292 297 302 306 308 309 311 313 314 315 316 316 316 317 318 319 320 320 319 319 319 320 320 319
255 257 259 259 259 257 255 254 254 255 256 256 255 253 251 252 252 254 255 256 257 257 257 257 256 256 257 258 259 261 262 264 267 270 272 271 270 267 264 262 260 261 261 262 263 265 266 266 267 267 268 269 271 272 272 272 273 276 280 283 289 295 299 302 305 307 309 311 313 314 315 315 315 316 318 319 320 321 321 322 323 322 320 319 316
257 256 256 256 257 258 256 254 254 254 255 255 253 252 251 251 251 252 254 255 256 255 256 258 259 260 261 261 260 260 260 261 264 268 270 270 268 266 263 260 258 258 259 260 261 263 263 263 264 264 265 267 268 268 269 271 273 276 281 286 291 295 299 302 304 307 309 312 313 314 314 314 316 317 318 319 320 322 323 323 323 321 319 317 315
262 258 255 254 254 255 255 254 252 251 252 252 252 252 253 253 252 253 254 255 255 255 256 259 261 263 263 262 260 259 259 260 262 265 266 266 265 262 259 257 256 256 257 258 258 259 260 259 258 259 261 264 265 266 269 272 275 278 283 288 293 296 300 302 305 308 311 312 313 313 314 316 317 318 318 319 321 322 323 323 322 320 319 318 318
265 260 257 255 253 253 252 252 251 250 250 249 250 252 254 255 255 255 255 255 255 256 258 261 263 265 265 263 260 259 259 260 261 263 263 262 260 258 254 252 253 255 257 257 256 255 254 255 255 257 261 264 266 268 270 272 277 281 286 291 294 298 301 304 307 310 312 313 313 314 316 317 318 318 319 320 322 323 324 324 323 321 320 320 320
261 257 255 254 253 253 252 252 251 251 251 250 250 251 253 255 256 256 256 256 256 257 258 260 262 264 264 261 258 256 255 255 256 258 258 258 257 254 249 248 251 253 253 252 252 251 252 255 259 261 264 265 266 268 271 275 280 285 289 292 296 300 303 307 309 311 312 314 315 317 318 318 318 318 319 320 323 325 326 326 325 324 323 324 325
257 254 251 251 252 255 257 256 255 254 252 252 252 251 252 253 255 256 256 257 257 258 258 258 259 261 261 260 256 253 250 250 251 252 253 252 251 248 241 237 239 242 242 243 247 251 255 258 260 261 261 263 266 269 274 278 283 287 290 294 298 303 306 309 311 313 314 316 317 318 318 316 316 317 320 323 325 327 329 329 329 330 331 332 333
253 251 250 250 251 256 261 263 262 260 258 256 255 254 253 254 255 257 258 258 257 257 256 256 256 255 254 254 251 248 246 245 245 247 248 247 246 243 235 226 226 231 237 243 248 253 255 256 257 259 261 264 268 272 276 281 285 289 294 298 302 306 309 311 313 314 316 317 318 317 316 315 316 319 323 327 330 332 333 334 336 339 342 344 344
248 247 248 250 253 258 265 270 271 270 267 264 261 259 258 257 257 259 260 260 259 256 254 252 250 248 246 246 243 239 238 240 241 241 242 241 241 240 236 231 229 233 240 246 250 251 252 253 256 259 262 265 270 275 279 284 289 293 298 302 305 308 310 312 314 315 317 318 317 315 314 315 318 323 328 331 334 335 337 339 343 347 351 354 356
244 245 246 250 256 262 269 275 278 278 276 273 271 268 266 264 263 262 262 262 261 257 252 247 243 241 240 241 239 236 235 236 236 235 236 237 239 242 243 245 246 246 248 251 252 252 254 255 257 260 264 269 274 280 284 289 293 297 301 304 307 309 311 312 314 315 316 316 315 313 313 315 321 327 331 334 337 339 342 345 349 353 357 360 1
243 244 246 250 256 264 272 279 283 285 285 282 277 273 270 267 265 263 263 262 257 251 243 236 231 232 234 235 234 232 229 225 224 228 234 238 244 249 254 258 260 258 256 255 255 255 255 256 259 263 268 273 278 283 286 291 295 299 302 305 307 309 310 311 313 314 314 313 312 311 312 315 321 327 332 334 337 340 343 346 349 352 355 358 358
248 248 249 253 259 267 274 279 285 290 291 289 284 278 272 266 262 259 257 253 248 243 238 231 226 226 230 231 229 227 226 224 225 230 238 244 250 257 262 263 262 258 254 252 252 252 253 257 261 266 271 276 280 284 288 292 296 299 302 304 306 308 309 310 311 310 309 309 309 308 310 314 320 326 329 331 334 336 338 341 344 346 348 350 352
255 254 256 259 266 272 276 281 287 292 292 289 284 277 270 265 259 253 247 243 241 239 240 239 235 232 235 236 233 227 226 227 230 235 244 254 261 263 263 260 256 252 249 248 249 252 256 260 265 269 273 277 281 285 289 293 296 298 301 303 304 306 307 307 307 306 304 304 304 304 306 310 316 321 324 327 330 332 333 336 338 340 342 344 345
258 260 264 271 278 283 285 286 289 291 290 286 282 276 269 264 259 252 245 243 244 244 244 243 242 241 242 242 238 233 233 240 251 259 261 262 260 257 254 252 249 247 247 248 252 256 260 263 267 270 273 278 283 287 290 293 295 297 299 301 303 304 303 303 301 300 299 299 298 298 300 305 310 314 316 319 323 325 327 329 331 333 336 337 337
261 265 273 283 289 291 290 289 289 288 286 283 280 274 266 260 255 248 243 242 244 247 249 248 247 247 247 244 241 243 252 260 264 264 261 255 251 248 246 245 244 245 248 252 255 259 261 264 268 272 276 281 284 287 289 291 294 296 298 300 300 300 299 297 296 295 294 294 293 292 295 300 304 306 308 310 313 316 319 321 322 324 328 330 331
265 272 282 290 293 292 290 288 287 286 285 282 280 275 267 260 255 250 245 241 241 245 249 249 245 243 243 241 240 245 252 256 258 259 257 252 247 244 243 244 246 249 252 255 257 260 264 268 272 276 279 282 284 286 289 291 293 295 296 297 297 295 294 292 291 291 290 289 289 289 291 295 298 300 302 304 307 309 311 312 313 315 319 324 325
272 280 287 291 292 291 289 290 290 286 281 276 274 269 258 249 248 249 247 244 242 243 245 241 231 225 227 233 239 244 250 253 254 254 251 248 245 244 245 247 250 252 254 257 260 264 268 271 274 276 279 281 283 286 288 290 292 293 294 293 292 291 289 287 286 286 286 287 287 288 289 291 293 294 296 300 304 306 306 305 305 306 311 315 318
279 285 289 290 288 286 288 296 297 285 273 270 275 272 260 251 248 248 245 240 236 233 230 224 218 215 219 228 235 240 242 245 246 246 246 246 247 248 250 252 253 256 259 262 265 267 270 272 275 277 279 282 285 287 288 290 290 290 289 288 286 285 283 282 282 282 283 284 285 286 288 289 289 290 294 297 300 302 302 299 296 296 301 307 309
285 288 287 286 283 282 290 307 310 295 280 270 260 252 248 245 240 235 229 223 218 214 207 201 201 206 212 219 226 231 235 239 241 242 244 246 248 250 251 252 253 256 259 262 266 270 272 275 278 280 282 283 285 286 286 286 285 283 282 281 280 279 279 278 278 278 278 278 279 281 283 284 284 286 290 294 296 297 297 294 290 288 292 297 299
285 284 282 289 304 316 315 307 301 293 279 259 238 226 224 223 219 216 216 212 207 200 190 187 196 208 214 217 222 227 230 233 236 238 241 244 245 246 247 249 251 255 259 264 268 272 276 278 281 283 283 283 283 283 282 281 279 279 279 278 276 276 277 277 277 276 275 274 274 275 277 279 281 284 286 289 290 291 292 290 288 288 291 294 293
Height
3174 3177 3179 3182 3184 3186 3189 3191 3194 3196 3198 3200 3202 3204 3206 3208 3210 3211 3213 3214 3216 3217 3218 3220 3221 3222 3223 3224 3225 3226 3227 3228 3229 3230 3231 3233 3234 3235 3236 3236 3238 3239 3240 3241 3242 3242 3243 3244 3244 3245 3245 3245 3246 3246 3247 3247 3247 3247 3247 3247 3247 3247 3246 3246 3246 3246 3246 3246 3246 3245 3245 3245 3245 3245 3244 3244 3243 3242 3242 3242 3241 3240 3239 3239 3238
3172 3175 3177 3179 3181 3184 3187 3189 3191 3193 3196 3198 3200 3202 3204 3206 3207 3209 3210 3212 3214 3215 3216 3218 3219 3221 3222 3223 3224 3224 3225 3226 3227 3228 3229 3231 3232 3233 3234 3235 3236 3237 3238 3239 3240 3241 3242 3242 3243 3244 3244 3244 3245 3245 3246 3246 3246 3246 3246 3246 3246 3246 3246 3246 3246 3245 3245 3245 3244 3244 3244 3244 3244 3244 3243 3243 3243 3242 3241 3241 3240 3239 3238 3237 3236
3170 3173 3175 3177 3179 3182 3184 3186 3189 3191 3193 3195 3198 3200 3202 3204 3205 3206 3209 3210 3212 3213 3215 3216 3217 3219 3220 3221 3222 3223 3224 3225 3225 3226 3228 3229 3230 3231 3232 3233 3234 3235 3236 3237 3238 3239 3240 3241 3242 3242 3242 3243 3244 3244 3244 3244 3244 3245 3244 3244 3245 3245 3245 3244 3244 3244 3244 3244 3243 3243 3243 3243 3243 3243 3242 3242 3241 3240 3240 3239 3238 3238 3237 3236 3235
3168 3170 3173 3175 3177 3180 3181 3184 3186 3188 3190 3193 3195 3198 3200 3201 3203 3205 3207 3208 3210 3211 3213 3214 3215 3217 3218 3219 3220 3221 3222 3223 3224 3225 3226 3227 3228 3229 3230 3231 3232 3233 3235 3236 3236 3237 3238 3239 3240 3240 3241 3241 3242 3243 3243 3243 3243 3243 3243 3243 3243 3243 3243 3242 3242 3242 3241 3242 3242 3242 3242 3241 3241 3241 3240 3240 3239 3238 3238 3237 3236 3236 3235 3234 3233
3166 3168 3170 3173 3175 3177 3179 3181 3183 3186 3188 3190 3193 3195 3197 3199 3201 3203 3204 3206 3208 3209 3211 3212 3213 3215 3216 3218 3219 3220 3221 3222 3223 3224 3225 3226 3227 3228 3229 3230 3231 3232 3233 3234 3234 3235 3236 3237 3238 3238 3238 3239 3240 3241 3241 3241 3241 3241 3241 3241 3241 3241 3241 3240 3240 3239 3238 3239 3240 3240 3240 3239 3239 3239 3239 3237 3236 3236 3235 3235 3234 3233 3233 3232 3230
3164 3166 3168 3170 3172 3174 3176 3179 3181 3183 3186 3188 3191 3193 3195 3197 3199 3200 3202 3204 3206 3207 3209 3210 3211 3213 3215 3216 3217 3218 3219 3220 3221 3222 3223 3224 3225 3226 3227 3228 3229 3230 3231 3232 3233 3233 3234 3235 3236 3236 3236 3237 3238 3239 3239 3239 3239 3239 3239 3239 3239 3239 3238 3238 3238 3237 3236 3236 3236 3237 3237 3237 3236 3236 3236 3235 3233 3232 3232 3232 3231 3230 3229 3228 3226
3161 3163 3166 3168 3170 3172 3174 3176 3179 3182 3184 3186 3189 3191 3193 3195 3196 3198 3200 3202 3203 3205 3206 3208 3209 3211 3213 3214 3215 3216 3217 3218 3219 3220 3221 3222 3224 3225 3226 3227 3228 3229 3230 3231 3231 3232 3232 3233 3234 3234 3234 3235 3236 3237 3237 3237 3237 3237 3237 3237 3236 3236 3236 3236 3235 3235 3234 3234 3234 3234 3234 3234 3233 3233 3233 3232 3230 3229 3229 3228 3226 3226 3225 3223 3221
3159 3161 3163 3165 3167 3169 3172 3175 3177 3180 3182 3184 3186 3188 3190 3192 3194 3196 3198 3199 3201 3203 3204 3206 3207 3209 3210 3211 3213 3214 3215 3216 3217 3218 3220 3221 3222 3223 3225 3225 3226 3227 3228 3229 3229 3230 3231 3231 3232 3232 3233 3233 3234 3234 3234 3234 3234 3234 3234 3234 3234 3233 3233 3233 3233 3232 3232 3231 3231 3231 3231 3230 3229 3229 3229 3228 3227 3226 3225 3222 3220 3221 3220 3218 3216
3156 3158 3161 3163 3165 3168 3170 3173 3175 3177 3180 3182 3184 3186 3188 3190 3192 3194 3195 3197 3199 3200 3202 3203 3205 3206 3207 3209 3210 3211 3212 3214 3215 3217 3218 3219 3221 3222 3223 3223 3224 3225 3225 3226 3227 3228 3228 3229 3230 3230 3230 3231 3231 3231 3231 3231 3231 3231 3232 3232 3231 3230 3230 3230 3230 3230 3229 3228 3228 3228 3227 3226 3226 3226 3225 3224 3222 3221 3220 3217 3215 3215 3214 3211 3211
3154 3156 3158 3161 3164 3166 3168 3170 3173 3175 3177 3179 3181 3184 3186 3188 3189 3191 3193 3194 3196 3198 3199 3200 3201 3203 3205 3206 3207 3208 3209 3211 3213 3215 3216 3217 3218 3219 3220 3221 3222 3222 3223 3223 3224 3225 3226 3226 3227 3227 3227 3228 3228 3228 3228 3229 3228 3229 3229 3229 3228 3227 3227 3228 3228 3227 3226 3225 3225 3225 3223 3222 3222 3222 3220 3219 3218 3216 3215 3213 3210 3209 3208 3205 3205
3152 3154 3156 3159 3162 3164 3166 3168 3170 3172 3174 3177 3179 3181 3183 3185 3187 3188 3190 3192 3193 3195 3196 3197 3199 3200 3202 3203 3204 3205 3207 3209 3211 3213 3214 3215 3216 3217 3217 3218 3219 3219 3220 3220 3221 3222 3222 3223 3223 3223 3224 3224 3225 3225 3225 3225 3225 3226 3227 3226 3226 3225 3225 3225 3225 3225 3224 3222 3221 3221 3219 3218 3218 3218 3216 3215 3214 3212 3210 3208 3206 3205 3203 3201 3200
3150 3152 3155 3158 3160 3162 3164 3166 3168 3170 3172 3175 3177 3179 3181 3182 3184 3185 3187 3189 3191 3192 3193 3195 3196 3198 3199 3200 3201 3202 3204 3207 3209 3210 3211 3213 3213 3214 3215 3215 3216 3217 3217 3218 3218 3219 3219 3219 3220 3220 3220 3221 3221 3222 3222 3222 3222 3223 3223 3223 3223 3222 3222 3222 3222 3222 3221 3219 3218 3217 3216 3214 3214 3214 3212 3211 3210 3208 3206 3205 3203 3201 3200 3198 3196
3149 3151 3153 3155 3157 3160 3162 3164 3166 3168 3170 3172 3175 3176 3178 3179 3181 3183 3184 3186 3188 3189 3191 3192 3194 3195 3197 3198 3199 3200 3202 3204 3206 3207 3209 3210 3211 3211 3212 3212 3213 3214 3214 3215 3215 3216 3216 3216 3216 3216 3217 3217 3218 3218 3218 3219 3219 3219 3220 3220 3220 3220 3220 3220 3219 3218 3217 3216 3213 3213 3213 3212 3210 3209 3209 3207 3205 3204 3202 3201 3199 3197 3196 3195 3192
3147 3149 3151 3153 3155 3158 3160 3162 3164 3166 3168 3170 3172 3173 3174 3176 3178 3180 3182 3183 3184 3186 3188 3189 3191 3192 3194 3195 3196 3198 3199 3201 3203 3205 3206 3207 3208 3208 3209 3209 3210 3210 3211 3212 3212 3212 3213 3213 3213 3214 3214 3214 3214 3215 3215 3216 3216 3216 3216 3217 3217 3218 3218 3217 3216 3215 3214 3212 3210 3210 3211 3210 3207 3206 3206 3203 3200 3199 3197 3195 3193 3191 3191 3190 3188
3145 3148 3149 3151 3154 3156 3157 3159 3162 3164 3166 3168 3169 3170 3172 3174 3175 3177 3179 3180 3181 3183 3185 3186 3187 3189 3191 3192 3194 3195 3197 3199 3201 3202 3203 3204 3205 3205 3206 3206 3207 3207 3208 3209 3209 3209 3210 3210 3210 3211 3211 3212 3212 3212 3212 3213 3213 3213 3213 3214 3215 3215 3215 3214 3214 3213 3212 3209 3208 3208 3208 3207 3205 3203 3201 3198 3194 3192 3190 3188 3186 3184 3183 3182 3181
3143 3145 3147 3149 3151 3153 3155 3157 3159 3161 3163 3164 3166 3167 3169 3171 3173 3174 3176 3177 3179 3180 3182 3183 3185 3186 3188 3189 3190 3192 3194 3196 3198 3199 3201 3201 3202 3202 3202 3203 3203 3204 3205 3206 3206 3207 3207 3207 3208 3209 3209 3209 3210 3210 3210 3210 3210 3210 3210 3211 3212 3211 3211 3212 3212 3211 3209 3207 3206 3206 3205 3203 3201 3198 3197 3193 3187 3183 3182 3182 3180 3178 3176 3175 3174
3141 3143 3145 3147 3149 3150 3152 3154 3156 3158 3160 3161 3163 3165 3167 3169 3170 3172 3173 3174 3176 3178 3179 3181 3182 3184 3185 3186 3188 3189 3192 3194 3195 3196 3198 3198 3198 3199 3199 3200 3200 3201 3202 3203 3204 3204 3205 3205 3206 3206 3207 3207 3208 3208 3207 3207 3206 3206 3206 3207 3208 3207 3206 3207 3208 3209 3207 3205 3203 3202 3200 3198 3196 3193 3191 3188 3182 3176 3174 3175 3176 3173 3170 3170 3167
3138 3140 3142 3144 3146 3148 3150 3152 3154 3155 3157 3158 3160 3162 3164 3166 3167 3169 3170 3172 3173 3175 3177 3178 3179 3181 3182 3184 3185 3187 3189 3191 3192 3193 3194 3195 3195 3196 3196 3197 3197 3198 3199 3200 3201 3202 3202 3203 3203 3203 3204 3205 3205 3205 3204 3203 3202 3202 3202 3202 3203 3202 3201 3201 3205 3207 3205 3202 3200 3197 3195 3193 3191 3188 3186 3183 3180 3175 3170 3169 3170 3168 3164 3164 3161
3137 3139 3141 3142 3144 3146 3148 3150 3151 3153 3154 3156 3158 3159 3161 3163 3164 3166 3167 3169 3171 3172 3174 3175 3176 3178 3179 3181 3182 3184 3185 3187 3188 3189 3190 3191 3192 3193 3193 3193 3194 3195 3197 3198 3199 3199 3200 3200 3200 3200 3201 3201 3201 3201 3200 3199 3198 3198 3197 3196 3197 3197 3195 3196 3200 3202 3200 3198 3196 3193 3190 3188 3186 3183 3181 3179 3178 3174 3168 3165 3165 3162 3159 3158 3157
3135 3137 3139 3140 3142 3144 3146 3148 3149 3150 3152 3154 3155 3156 3158 3159 3161 3162 3164 3166 3167 3169 3170 3172 3173 3175 3176 3177 3179 3180 3182 3184 3185 3186 3187 3188 3189 3189 3190 3190 3191 3193 3194 3195 3196 3196 3197 3197 3197 3198 3197 3197 3197 3196 3196 3195 3194 3193 3192 3191 3191 3190 3189 3190 3193 3195 3193 3193 3191 3188 3185 3183 3180 3179 3177 3176 3174 3170 3166 3163 3160 3158 3154 3151 3151
3132 3134 3136 3138 3140 3141 3143 3145 3146 3148 3150 3151 3152 3154 3155 3156 3157 3159 3160 3162 3163 3165 3167 3168 3170 3171 3173 3174 3176 3177 3179 3180 3182 3183 3184 3184 3185 3186 3187 3188 3189 3190 3191 3192 3193 3193 3194 3194 3194 3194 3194 3193 3192 3192 3191 3191 3190 3188 3186 3185 3185 3184 3182 3185 3190 3190 3188 3187 3185 3183 3181 3178 3176 3175 3173 3171 3170 3166 3162 3159 3156 3153 3150 3146 3143
3130 3132 3134 3136 3137 3139 3140 3142 3143 3145 3146 3148 3149 3150 3152 3153 3154 3155 3157 3158 3159 3161 3163 3164 3166 3167 3169 3171 3172 3174 3176 3177 3178 3179 3180 3181 3182 3183 3184 3185 3186 3187 3187 3188 3189 3190 3190 3191 3191 3190 3190 3189 3189 3188 3188 3187 3185 3184 3182 3180 3180 3178 3177 3182 3188 3187 3183 3181 3179 3178 3177 3175 3173 3172 3169 3167 3166 3162 3158 3154 3150 3147 3144 3141 3138
3128 3130 3132 3133 3135 3136 3138 3139 3141 3142 3143 3144 3146 3147 3149 3150 3151 3152 3153 3155 3156 3157 3158 3160 3161 3163 3165 3167 3168 3170 3172 3174 3175 3176 3177 3178 3179 3180 3181 3182 3183 3183 3184 3185 3186 3187 3187 3187 3187 3187 3186 3186 3186 3185 3184 3182 3181 3180 3178 3175 3174 3172 3172 3177 3183 3182 3179 3177 3175 3173 3173 3171 3168 3167 3165 3163 3161 3157 3153 3150 3146 3142 3139 3135 3132
3126 3127 3129 3131 3133 3134 3136 3137 3139 3140 3141 3142 3143 3144 3146 3147 3148 3149 3150 3151 3152 3154 3155 3156 3157 3159 3160 3162 3164 3166 3168 3170 3171 3172 3173 3174 3175 3176 3177 3178 3179 3180 3180 3181 3182 3182 3182 3183 3183 3183 3183 3182 3182 3181 3180 3178 3177 3175 3173 3171 3169 3168 3168 3171 3175 3175 3173 3173 3171 3169 3169 3167 3165 3163 3161 3159 3156 3153 3148 3145 3142 3138 3134 3129 3126
3124 3125 3127 3129 3130 3132 3134 3136 3137 3138 3140 3140 3141 3143 3144 3145 3146 3146 3147 3148 3149 3150 3152 3153 3154 3155 3156 3158 3160 3162 3163 3165 3167 3168 3169 3170 3171 3172 3173 3174 3175 3175 3176 3177 3177 3178 3178 3179 3179 3179 3179 3178 3177 3176 3175 3174 3172 3171 3169 3167 3165 3164 3163 3164 3167 3168 3167 3168 3167 3166 3165 3163 3162 3160 3157 3155 3153 3148 3143 3140 3137 3133 3128 3123 3120
3122 3124 3125 3127 3128 3130 3131 3133 3135 3136 3137 3138 3139 3141 3142 3143 3144 3145 3145 3146 3147 3148 3149 3150 3151 3152 3153 3155 3156 3158 3159 3160 3162 3163 3165 3166 3167 3168 3169 3170 3171 3171 3172 3173 3173 3173 3174 3174 3174 3175 3174 3174 3173 3172 3171 3170 3168 3167 3165 3163 3161 3160 3159 3159 3160 3161 3161 3161 3161 3160 3160 3159 3157 3155 3152 3150 3147 3142 3136 3133 3130 3128 3123 3117 3112
3120 3122 3124 3125 3126 3128 3129 3130 3132 3133 3135 3136 3137 3138 3139 3141 3142 3143 3144 3145 3145 3146 3147 3148 3149 3150 3151 3152 3153 3154 3155 3156 3157 3158 3160 3161 3163 3164 3165 3166 3166 3167 3168 3169 3169 3169 3170 3170 3170 3170 3170 3169 3168 3168 3167 3166 3164 3163 3161 3159 3157 3156 3155 3154 3155 3155 3156 3155 3155 3154 3153 3152 3150 3149 3146 3144 3141 3136 3131 3126 3123 3120 3116 3111 3106
3118 3120 3121 3123 3124 3125 3126 3128 3129 3130 3132 3133 3134 3135 3137 3138 3139 3141 3142 3142 3143 3144 3144 3145 3146 3147 3147 3148 3149 3150 3151 3152 3153 3154 3155 3156 3157 3159 3160 3161 3162 3163 3164 3164 3164 3164 3165 3166 3165 3165 3165 3164 3164 3163 3163 3162 3160 3159 3157 3156 3155 3153 3152 3151 3151 3151 3150 3150 3149 3148 3147 3146 3144 3142 3140 3137 3134 3130 3125 3120 3116 3112 3109 3104 3100
3116 3117 3118 3120 3121 3122 3123 3125 3126 3127 3128 3130 3131 3132 3133 3134 3136 3137 3138 3139 3140 3140 3141 3142 3143 3143 3144 3145 3145 3146 3147 3148 3148 3149 3150 3151 3152 3153 3155 3156 3157 3158 3159 3159 3160 3160 3160 3160 3160 3160 3160 3160 3159 3159 3158 3157 3156 3155 3154 3153 3152 3150 3149 3148 3147 3146 3145 3144 3143 3142 3140 3139 3137 3134 3131 3129 3127 3123 3118 3113 3109 3106 3102 3098 3094
3113 3114 3116 3117 3118 3119 3120 3121 3122 3124 3125 3126 3127 3128 3129 3130 3132 3133 3134 3135 3136 3137 3138 3139 3140 3140 3140 3141 3142 3143 3144 3144 3145 3145 3146 3147 3148 3149 3150 3151 3152 3153 3154 3154 3155 3155 3155 3155 3155 3156 3156 3155 3155 3154 3153 3152 3151 3151 3150 3149 3149 3148 3147 3146 3145 3143 3142 3140 3138 3136 3134 3132 3129 3127 3124 3121 3119 3117 3113 3108 3104 3100 3097 3093 3090
3110 3111 3112 3114 3115 3116 3117 3118 3119 3120 3121 3122 3123 3124 3125 3126 3127 3128 3129 3130 3132 3133 3134 3135 3136 3136 3137 3138 3139 3140 3140 3141 3141 3141 3142 3142 3143 3144 3145 3146 3147 3148 3149 3149 3149 3150 3150 3151 3151 3151 3151 3151 3150 3149 3149 3148 3148 3147 3147 3146 3145 3145 3144 3143 3142 3140 3138 3137 3134 3132 3130 3127 3124 3121 3118 3115 3112 3111 3108 3104 3100 3096 3093 3089 3085
3107 3108 3109 3110 3111 3112 3113 3114 3115 3116 3117 3118 3119 3120 3121 3122 3123 3124 3125 3126 3127 3128 3130 3131 3132 3133 3133 3134 3135 3136 3137 3137 3137 3138 3138 3138 3139 3139 3140 3141 3142 3143 3143 3144 3144 3145 3145 3146 3146 3146 3146 3145 3145 3144 3144 3144 3144 3144 3143 3143 3142 3142 3141 3140 3139 3137 3135 3133 3131 3128 3126 3123 3120 3117 3114 3110 3107 3105 3102 3100 3097 3093 3090 3087 3083
3103 3104 3105 3106 3107 3108 3109 3110 3111 3112 3113 3114 3115 3116 3117 3118 3119 3120 3121 3122 3123 3124 3125 3126 3127 3128 3129 3130 3131 3132 3133 3133 3133 3134 3134 3134 3135 3135 3135 3136 3137 3137 3138 3139 3139 3140 3140 3141 3141 3141 3140 3140 3140 3141 3141 3141 3141 3141 3140 3140 3139 3138 3137 3136 3135 3133 3131 3129 3127 3125 3122 3120 3117 3113 3110 3107 3103 3100 3097 3095 3092 3089 3086 3084 3081
3099 3099 3100 3101 3102 3103 3105 3106 3107 3108 3109 3110 3111 3112 3112 3113 3115 3116 3117 3118 3119 3120 3121 3122 3123 3124 3125 3126 3127 3128 3128 3129 3129 3130 3130 3130 3130 3130 3131 3132 3132 3133 3133 3134 3134 3135 3135 3136 3136 3136 3136 3137 3137 3137 3137 3137 3137 3137 3137 3136 3136 3135 3134 3133 3131 3130 3128 3126 3124 3121 3119 3116 3113 3110 3107 3104 3101 3098 3094 3091 3089 3086 3083 3081 3078
3094 3095 3096 3097 3098 3099 3101 3102 3103 3104 3105 3106 3107 3108 3109 3110 3111 3112 3113 3114 3115 3116 3117 3117 3118 3119 3120 3121 3121 3122 3123 3124 3124 3125 3125 3125 3125 3126 3126 3127 3127 3128 3129 3129 3130 3131 3131 3131 3132 3132 3133 3133 3133 3134 3134 3134 3134 3133 3133 3132 3132 3131 3130 3129 3127 3126 3124 3122 3120 3118 3115 3113 3110 3107 3104 3102 3099 3096 3093 3090 3087 3084 3081 3078 3075
3091 3092 3092 3093 3094 3095 3096 3098 3099 3100 3101 3102 3103 3104 3105 3106 3107 3108 3109 3110 3111 3111 3112 3113 3114 3115 3116 3116 3117 3117 3118 3118 3119 3119 3120 3120 3121 3121 3122 3122 3123 3124 3125 3126 3126 3127 3127 3127 3128 3129 3129 3130 3130 3130 3130 3130 3130 3129 3129 3128 3128 3127 3126 3125 3123 3122 3120 3118 3116 3114 3112 3109 3107 3104 3102 3099 3096 3094 3091 3088 3085 3082 3078 3075 3071
3088 3089 3090 3090 3091 3092 3093 3094 3095 3096 3097 3098 3099 3100 3101 3102 3103 3104 3105 3105 3106 3107 3108 3109 3110 3111 3111 3111 3112 3112 3112 3113 3113 3114 3115 3115 3116 3117 3118 3119 3120 3120 3121 3122 3122 3123 3123 3124 3125 3125 3126 3126 3126 3126 3126 3126 3126 3125 3125 3124 3124 3123 3122 3120 3119 3117 3116 3114 3112 3110 3108 3106 3104 3102 3099 3097 3094 3091 3088 3085 3082 3079 3076 3072 3068
3086 3087 3087 3087 3088 3089 3090 3091 3092 3093 3093 3094 3095 3096 3096 3097 3098 3099 3100 3101 3102 3103 3104 3105 3106 3106 3106 3107 3107 3107 3107 3108 3108 3109 3110 3111 3112 3112 3113 3115 3116 3116 3117 3118 3118 3119 3120 3121 3121 3122 3122 3122 3122 3122 3122 3122 3122 3121 3121 3120 3120 3119 3117 3116 3115 3113 3112 3110 3108 3106 3104 3103 3101 3099 3096 3094 3091 3088 3085 3082 3079 3076 3073 3069 3066
3083 3084 3085 3085 3085 3086 3086 3087 3088 3089 3090 3091 3091 3092 3093 3093 3094 3095 3096 3097 3098 3099 3099 3101 3101 3102 3102 3102 3102 3102 3103 3103 3104 3105 3106 3107 3107 3108 3109 3110 3111 3112 3113 3114 3115 3115 3116 3117 3117 3118 3118 3118 3118 3118 3118 3118 3118 3117 3117 3116 3115 3114 3113 3112 3110 3109 3107 3106 3104 3102 3101 3099 3097 3095 3093 3090 3087 3085 3082 3079 3076 3073 3070 3067 3064
3080 3081 3082 3082 3083 3083 3084 3084 3085 3086 3086 3087 3088 3088 3089 3090 3091 3091 3092 3093 3094 3094 3095 3096 3097 3097 3097 3097 3098 3098 3099 3099 3099 3100 3101 3102 3103 3104 3105 3106 3107 3108 3109 3110 3111 3111 3112 3113 3113 3114 3114 3114 3114 3114 3114 3114 3113 3113 3112 3112 3111 3110 3109 3108 3106 3105 3103 3102 3100 3099 3097 3095 3093 3091 3089 3087 3084 3082 3080 3077 3074 3072 3069 3066 3063
3076 3078 3078 3079 3079 3080 3080 3081 3081 3082 3083 3083 3084 3085 3086 3086 3087 3087 3088 3089 3090 3090 3091 3091 3092 3092 3092 3093 3093 3094 3094 3094 3095 3095 3096 3097 3099 3100 3101 3102 3103 3104 3105 3106 3107 3108 3108 3109 3109 3109 3110 3110 3110 3110 3110 3110 3109 3109 3109 3108 3107 3106 3105 3104 3103 3101 3100 3099 3097 3095 3094 3092 3090 3088 3086 3084 3082 3080 3078 3075 3073 3071 3069 3066 3064
3072 3074 3075 3075 3076 3076 3076 3077 3077 3078 3079 3079 3080 3081 3081 3082 3083 3083 3084 3085 3085 3085 3086 3086 3087 3088 3088 3088 3089 3090 3090 3089 3089 3090 3091 3093 3095 3097 3098 3099 3100 3101 3102 3103 3104 3104 3105 3105 3105 3105 3106 3106 3106 3106 3106 3106 3106 3105 3105 3104 3104 3103 3102 3100 3099 3098 3097 3096 3094 3092 3091 3089 3087 3086 3084 3082 3080 3078 3076 3075 3073 3071 3069 3067 3064
3068 3069 3070 3071 3071 3071 3072 3072 3072 3073 3074 3074 3075 3076 3077 3077 3078 3079 3079 3080 3081 3082 3082 3083 3083 3084 3084 3084 3084 3085 3085 3083 3083 3085 3088 3090 3091 3093 3094 3096 3097 3098 3099 3100 3100 3101 3101 3101 3101 3102 3102 3102 3102 3102 3102 3102 3102 3102 3101 3101 3100 3099 3098 3097 3096 3094 3094 3093 3091 3090 3088 3086 3085 3083 3082 3080 3079 3077 3075 3074 3072 3070 3068 3066 3064
3063 3064 3065 3066 3067 3067 3067 3067 3067 3068 3068 3069 3070 3070 3071 3072 3073 3074 3075 3076 3076 3078 3079 3080 3080 3080 3079 3078 3078 3079 3080 3081 3083 3084 3086 3087 3088 3089 3091 3093 3094 3095 3096 3096 3097 3097 3097 3098 3098 3098 3098 3099 3099 3098 3098 3098 3098 3098 3098 3098 3097 3096 3095 3093 3092 3091 3090 3090 3088 3087 3086 3084 3083 3081 3080 3078 3077 3075 3074 3072 3070 3069 3067 3065 3063
3058 3059 3060 3061 3061 3062 3062 3062 3062 3062 3062 3063 3064 3065 3066 3067 3068 3069 3071 3072 3072 3073 3074 3075 3076 3076 3075 3075 3077 3080 3082 3084 3084 3084 3084 3084 3085 3086 3088 3089 3090 3091 3092 3092 3093 3094 3094 3094 3095 3095 3095 3095 3095 3095 3095 3095 3095 3095 3094 3094 3093 3092 3091 3090 3089 3088 3088 3087 3086 3085 3083 3082 3081 3079 3078 3076 3075 3074 3072 3071 3069 3067 3065 3064 3062
3053 3054 3055 3056 3056 3056 3056 3056 3056 3056 3056 3057 3058 3059 3061 3062 3063 3065 3066 3067 3068 3069 3070 3071 3072 3073 3074 3075 3077 3079 3081 3081 3081 3081 3081 3081 3082 3083 3084 3086 3086 3087 3088 3089 3090 3090 3091 3091 3091 3091 3091 3091 3091 3091 3091 3091 3091 3091 3090 3090 3089 3088 3087 3086 3086 3085 3085 3084 3083 3082 3081 3080 3079 3078 3076 3075 3073 3072 3071 3069 3068 3066 3064 3063 3061
3048 3049 3049 3050 3050 3050 3050 3050 3051 3051 3051 3052 3053 3054 3055 3057 3059 3060 3061 3062 3063 3064 3065 3066 3068 3070 3072 3073 3074 3075 3076 3077 3077 3078 3078 3078 3079 3080 3081 3082 3083 3084 3085 3085 3086 3087 3087 3087 3088 3088 3088 3088 3088 3088 3088 3088 3087 3087 3086 3085 3084 3084 3083 3083 3082 3082 3081 3081 3080 3079 3078 3077 3076 3075 3074 3073 3072 3070 3069 3068 3066 3065 3063 3062 3060
3043 3043 3044 3044 3044 3044 3044 3044 3045 3046 3047 3048 3049 3050 3051 3053 3055 3056 3057 3058 3060 3061 3061 3062 3063 3065 3067 3068 3069 3071 3072 3073 3074 3074 3075 3076 3076 3077 3078 3079 3080 3080 3081 3082 3082 3083 3083 3084 3084 3084 3084 3084 3084 3084 3084 3083 3083 3082 3081 3081 3080 3080 3080 3079 3079 3079 3078 3077 3077 3076 3075 3074 3073 3072 3071 3070 3069 3068 3067 3066 3065 3063 3062 3060 3059
3038 3038 3039 3039 3039 3039 3039 3039 3040 3041 3043 3044 3046 3047 3049 3050 3051 3052 3053 3054 3054 3056 3056 3057 3059 3061 3062 3064 3066 3067 3068 3069 3070 3071 3071 3073 3073 3074 3075 3076 3077 3077 3078 3078 3079 3079 3079 3080 3080 3080 3080 3080 3080 3079 3079 3078 3078 3077 3077 3077 3076 3076 3076 3076 3075 3075 3074 3074 3074 3073 3072 3071 3070 3069 3068 3067 3066 3065 3064 3063 3062 3061 3060 3059 3057
3033 3034 3035 3035 3035 3035 3034 3035 3036 3038 3040 3042 3043 3045 3046 3047 3047 3047 3048 3049 3050 3052 3052 3052 3054 3057 3059 3060 3062 3064 3065 3065 3067 3067 3068 3069 3070 3071 3072 3073 3073 3073 3074 3074 3075 3075 3075 3075 3075 3075 3075 3075 3075 3075 3074 3074 3074 3073 3073 3073 3072 3072 3072 3072 3071 3071 3071 3070 3070 3069 3069 3068 3066 3065 3064 3063 3063 3062 3061 3060 3059 3059 3058 3057 3055
3029 3031 3032 3032 3032 3031 3031 3032 3035 3036 3039 3041 3042 3042 3042 3043 3044 3045 3047 3049 3050 3051 3050 3050 3051 3054 3056 3058 3060 3061 3062 3063 3064 3065 3066 3066 3067 3068 3068 3069 3070 3070 3070 3071 3071 3071 3071 3071 3071 3071 3070 3070 3070 3070 3070 3070 3070 3069 3069 3069 3068 3068 3068 3068 3068 3067 3067 3066 3066 3065 3064 3063 3062 3061 3060 3059 3059 3058 3058 3057 3056 3056 3055 3054 3053